Date String (YYYY-MM-DD hh:mm:ss) UTC,Instrument flags,Ambient pressure (hPa),Sample flow (lpm),Bypass flow (lpm),Sample temperature (°C),Ambient temperature (°C),ASC tube jacket temperature (°C),LED temperature (°C),Box temperature (°C),Sample RH (%),Span deviation,Mass concentration (μg/m³),Mass concentration (μg/m³),Mass concentration (μg/m³)
DateTimeUTC,F1_M11,P_M11,Q1_M11,Q2_M11,T1_M11,T2_M11,T3_M11,T4_M11,T5_M11,U1_M11,ZSPAN_M11,X0_M11,X2_M11,X1_M11
2022-01-29 09:00:00,,0829.7,5.00,0.00,22.2,22.0,00.0,31.3,24.0,03.9,0000.0,0001.01,0000.49,0000.44
2022-01-29 09:01:00,,0829.7,5.01,0.00,22.2,21.8,00.0,31.3,23.9,03.9,0000.0,0001.05,0000.53,0000.47
2022-01-29 09:02:00,,0829.6,5.01,0.00,22.2,21.7,00.0,31.3,23.8,03.9,0000.0,0000.66,0000.54,0000.49
2022-01-29 09:03:00,,0829.5,5.00,0.00,22.2,21.6,00.0,31.3,23.8,03.8,0000.0,0000.67,0000.55,0000.51
2022-01-29 09:04:00,,0829.5,4.99,0.00,22.1,21.5,00.0,31.2,23.7,03.8,0000.0,0000.67,0000.55,0000.51
2022-01-29 09:05:00,,0829.6,5.00,0.00,22.1,21.5,00.0,31.2,23.6,03.6,0000.0,0000.71,0000.57,0000.50
2022-01-29 09:06:00,,0829.6,5.00,0.00,22.1,21.4,00.0,31.2,23.7,03.8,0000.0,0000.72,0000.56,0000.48
2022-01-29 09:07:00,,0829.6,5.00,0.00,22.0,21.4,00.0,31.2,23.7,04.1,0000.0,0000.74,0000.56,0000.48
2022-01-29 09:08:00,,0829.6,5.01,0.00,22.0,21.4,00.0,31.2,23.7,04.3,0000.0,0000.75,0000.56,0000.47
2022-01-29 09:09:00,,0829.6,5.01,0.00,22.0,21.4,00.0,31.2,23.7,04.1,0000.0,0000.77,0000.56,0000.45
2022-01-29 09:10:00,,0829.5,5.00,0.00,22.0,21.3,00.0,31.2,23.6,04.0,0000.0,0000.76,0000.54,0000.43
2022-01-29 09:11:00,,0829.5,5.01,0.00,22.0,21.3,00.0,31.1,23.6,04.0,0000.0,0000.71,0000.51,0000.41
2022-01-29 09:12:00,,0829.6,5.01,0.00,22.0,21.3,00.0,31.1,23.7,04.0,0000.0,0000.69,0000.48,0000.39
2022-01-29 09:13:00,,0829.5,5.00,0.00,22.0,21.3,00.0,31.1,23.6,04.2,0000.0,0000.69,0000.47,0000.37
2022-01-29 09:14:00,,0829.5,5.00,0.00,22.0,21.4,00.0,31.1,23.7,04.2,0000.0,0000.80,0000.51,0000.37
2022-01-29 09:15:00,,0829.6,5.00,0.00,22.1,22.1,00.0,31.2,23.9,04.3,0000.0,0000.88,0000.53,0000.37
2022-01-29 09:16:00,,0829.6,5.01,0.00,22.3,22.9,00.0,31.2,24.2,04.1,0000.0,0000.87,0000.52,0000.38
2022-01-29 09:17:00,,0829.7,4.99,0.00,22.4,23.1,00.0,31.2,24.4,04.1,0000.0,0000.92,0000.54,0000.40
2022-01-29 09:18:00,,0829.6,5.01,0.00,22.4,22.9,00.0,31.3,24.4,04.1,0000.0,0000.89,0000.54,0000.40
2022-01-29 09:19:00,,0829.6,5.00,0.00,22.5,22.7,00.0,31.3,24.3,04.1,0000.0,0000.85,0000.52,0000.40
2022-01-29 09:20:00,,0829.6,5.00,0.00,22.5,22.5,00.0,31.3,24.3,04.3,0000.0,0000.80,0000.51,0000.40
2022-01-29 09:21:00,,0829.6,4.99,0.00,22.5,22.3,00.0,31.3,24.3,04.4,0000.0,0000.79,0000.51,0000.40
2022-01-29 09:22:00,,0829.6,5.01,0.00,22.5,22.2,00.0,31.3,24.2,04.2,0000.0,0000.79,0000.52,0000.41
2022-01-29 09:23:00,,0829.5,4.99,0.00,22.4,22.1,00.0,31.3,24.2,04.1,0000.0,0000.78,0000.51,0000.41
2022-01-29 09:24:00,,0829.6,5.00,0.00,22.4,22.0,00.0,31.3,24.1,04.1,0000.0,0000.77,0000.51,0000.41
2022-01-29 09:25:00,,0829.5,5.00,0.00,22.4,21.9,00.0,31.3,24.1,04.1,0000.0,0000.71,0000.48,0000.41
2022-01-29 09:26:00,,0829.6,4.99,0.00,22.4,21.8,00.0,31.3,24.0,04.1,0000.0,0000.63,0000.47,0000.41
2022-01-29 09:27:00,,0829.6,5.00,0.00,22.3,21.7,00.0,31.3,24.0,04.2,0000.0,0000.62,0000.47,0000.40
2022-01-29 09:28:00,,0829.6,5.00,0.00,22.3,21.7,00.0,31.3,24.0,04.0,0000.0,0000.55,0000.44,0000.39
2022-01-29 09:29:00,,0829.6,4.99,0.00,22.3,21.6,00.0,31.3,24.0,04.1,0000.0,0000.57,0000.44,0000.39
2022-01-29 09:30:00,,0829.6,5.01,0.00,22.3,21.6,00.0,31.3,24.0,04.2,0000.0,0000.57,0000.45,0000.39
2022-01-29 09:31:00,,0829.6,5.01,0.00,22.3,21.5,00.0,31.3,23.9,04.3,0000.0,0000.59,0000.46,0000.39
2022-01-29 09:32:00,,0829.6,4.99,0.00,22.2,21.5,00.0,31.3,23.8,04.3,0000.0,0000.62,0000.46,0000.40
2022-01-29 09:33:00,,0829.6,4.99,0.00,22.2,21.4,00.0,31.3,23.8,04.5,0000.0,0000.61,0000.46,0000.40
2022-01-29 09:34:00,,0829.5,5.01,0.00,22.2,21.4,00.0,31.3,23.8,04.3,0000.0,0000.62,0000.47,0000.40
2022-01-29 09:35:00,,0829.6,5.00,0.00,22.2,21.4,00.0,31.3,23.8,04.2,0000.0,0000.63,0000.48,0000.42
2022-01-29 09:36:00,,0829.6,5.01,0.00,22.2,21.3,00.0,31.3,23.8,04.2,0000.0,0000.65,0000.49,0000.43
2022-01-29 09:37:00,,0829.5,5.00,0.00,22.1,21.3,00.0,31.2,23.8,04.3,0000.0,0000.64,0000.49,0000.43
2022-01-29 09:38:00,,0829.6,4.99,0.00,22.2,21.7,00.0,31.3,23.9,04.3,0000.0,0000.64,0000.49,0000.44
2022-01-29 09:39:00,,0829.5,5.02,0.00,22.3,22.5,00.0,31.3,24.1,04.4,0000.0,0000.67,0000.50,0000.45
2022-01-29 09:40:00,,0829.6,4.99,0.00,22.4,23.1,00.0,31.3,24.4,04.1,0000.0,0000.76,0000.51,0000.46
2022-01-29 09:41:00,,0829.5,5.00,0.00,22.5,23.0,00.0,31.4,24.5,04.0,0000.0,0000.77,0000.52,0000.46
2022-01-29 09:42:00,,0829.5,5.00,0.00,22.5,22.7,00.0,31.4,24.4,04.0,0000.0,0000.78,0000.53,0000.47
2022-01-29 09:43:00,,0829.5,4.99,0.00,22.5,22.5,00.0,31.4,24.3,03.9,0000.0,0000.87,0000.54,0000.48
2022-01-29 09:44:00,,0829.5,4.99,0.00,22.5,22.3,00.0,31.4,24.2,04.0,0000.0,0001.00,0000.57,0000.48
2022-01-29 09:45:00,,0829.5,5.01,0.00,22.5,22.2,00.0,31.4,24.2,04.1,0000.0,0001.03,0000.59,0000.49
2022-01-29 09:46:00,,0829.5,5.01,0.00,22.4,22.0,00.0,31.4,24.1,03.9,0000.0,0001.02,0000.59,0000.48
2022-01-29 09:47:00,,0829.5,4.99,0.00,22.4,21.9,00.0,31.4,24.1,04.0,0000.0,0001.05,0000.58,0000.49
2022-01-29 09:48:00,,0829.5,5.01,0.00,22.4,21.8,00.0,31.4,24.1,04.1,0000.0,0001.17,0000.61,0000.49
2022-01-29 09:49:00,,0829.4,5.00,0.00,22.3,21.7,00.0,31.4,24.0,04.2,0000.0,0001.19,0000.61,0000.49
2022-01-29 09:50:00,,0829.3,5.00,0.00,22.3,21.7,00.0,31.4,23.9,04.1,0000.0,0001.17,0000.61,0000.49
2022-01-29 09:51:00,,0829.4,5.00,0.00,22.3,21.6,00.0,31.4,23.9,04.0,0000.0,0001.10,0000.61,0000.49
2022-01-29 09:52:00,,0829.4,5.00,0.00,22.3,21.5,00.0,31.4,23.9,04.1,0000.0,0001.43,0000.61,0000.49
2022-01-29 09:53:00,,0829.5,4.99,0.00,22.3,21.5,00.0,31.3,23.9,04.3,0000.0,0002.95,0000.62,0000.49
2022-01-29 09:54:00,,0829.5,5.02,0.00,22.2,21.5,00.0,31.3,23.8,04.3,0000.0,0002.98,0000.65,0000.50
2022-01-29 09:55:00,,0829.5,5.00,0.00,22.2,21.4,00.0,31.3,23.8,04.1,0000.0,0002.92,0000.64,0000.49
2022-01-29 09:56:00,,0829.4,5.00,0.00,22.2,21.4,00.0,31.3,23.8,04.0,0000.0,0002.91,0000.63,0000.49
2022-01-29 09:57:00,,0829.5,5.00,0.00,22.2,21.3,00.0,31.3,23.8,04.0,0000.0,0002.92,0000.62,0000.49
2022-01-29 09:58:00,,0829.5,5.01,0.00,22.1,21.3,00.0,31.3,23.7,03.8,0000.0,0002.84,0000.62,0000.49
2022-01-29 09:59:00,,0829.5,5.01,0.00,22.1,21.3,00.0,31.3,23.7,04.1,0000.0,0002.77,0000.62,0000.50
